When you browse on this site, cookies collect data to enhance your experience and personalize the content and advertising you see.
Visit our Privacy Policy to learn more. By continuing to use the site, you agree to this use of cookies and data.
  • In Romania
  • List of Countries
  • For 7 days
  • Water Temperature
  • Satellite Maps
  • Weather Map
  • Weather Widgets
  • user-avatar
    Login

    Hourly Weather Shiraz

    Today, 23 January, Wednesday

    Time Temperature Precipitation Wind Pressure Humidity
    00:00 +7°C° 0 mm 1 mps 634 mmHg 45%
    01:00 +6°C° 0 mm 1 mps 634 mmHg 46%
    02:00 +6°C° 0 mm 1 mps 633 mmHg 46%
    03:00 +6°C° 0 mm 1 mps 633 mmHg 46%
    04:00 +5°C° 0 mm 1 mps 633 mmHg 46%
    05:00 +5°C° 0 mm 1 mps 633 mmHg 46%
    06:00 +5°C° 0 mm 1 mps 633 mmHg 46%
    07:00 +5°C° 0 mm 1 mps 633 mmHg 46%
    08:00 +6°C° 0 mm 1 mps 634 mmHg 40%
    09:00 +8°C° 0 mm 1 mps 635 mmHg 34%
    10:00 +8°C° 0 mm 0 mps 636 mmHg 29%
    11:00 +11°C° 0 mm 1 mps 636 mmHg 28%
    12:00 +12°C° 0 mm 1 mps 636 mmHg 28%
    13:00 +13°C° 0 mm 1 mps 636 mmHg 27%
    14:00 +13°C° 0 mm 2 mps 636 mmHg 27%
    15:00 +13°C° 0 mm 3 mps 636 mmHg 28%
    16:00 +13°C° 0 mm 3 mps 636 mmHg 28%
    17:00 +12°C° 0 mm 3 mps 636 mmHg 33%
    18:00 +12°C° 0 mm 2 mps 636 mmHg 38%
    19:00 +9°C° 0 mm 2 mps 635 mmHg 42%
    20:00 +9°C° 0 mm 2 mps 636 mmHg 44%
    21:00 +9°C° 0 mm 1 mps 636 mmHg 45%
    22:00 +9°C° 0 mm 1 mps 636 mmHg 47%
    23:00 +8°C° 0 mm 1 mps 636 mmHg 48%

    Tomorrow, 24 January, Thursday

    Time Temperature Precipitation Wind Pressure Humidity
    00:00 +8°C° 0 mm 1 mps 636 mmHg 49%
    01:00 +7°C° 0 mm 1 mps 636 mmHg 50%
    02:00 +7°C° 0 mm 1 mps 635 mmHg 51%
    03:00 +7°C° 0 mm 1 mps 635 mmHg 52%
    04:00 +6°C° 0 mm 1 mps 635 mmHg 52%
    05:00 +5°C° 0 mm 0 mps 635 mmHg 53%
    06:00 +5°C° 0 mm 0 mps 636 mmHg 53%
    07:00 +5°C° 0 mm 0 mps 636 mmHg 54%
    08:00 +6°C° 0 mm 0 mps 637 mmHg 48%
    09:00 +9°C° 0 mm 1 mps 638 mmHg 42%
    10:00 +10°C° 0 mm 1 mps 639 mmHg 36%
    11:00 +11°C° 0 mm 1 mps 639 mmHg 34%
    12:00 +12°C° 0 mm 1 mps 639 mmHg 33%
    13:00 +13°C° 0 mm 1 mps 639 mmHg 31%
    14:00 +14°C° 0 mm 1 mps 639 mmHg 30%
    15:00 +14°C° 0 mm 1 mps 638 mmHg 30%
    16:00 +14°C° 0 mm 2 mps 638 mmHg 29%
    17:00 +13°C° 0 mm 1 mps 638 mmHg 34%
    18:00 +12°C° 0 mm 1 mps 638 mmHg 40%
    19:00 +11°C° 0 mm 1 mps 638 mmHg 45%
    20:00 +10°C° 0 mm 1 mps 638 mmHg 46%
    21:00 +10°C° 0 mm 1 mps 638 mmHg 47%
    22:00 +9°C° 0 mm 1 mps 638 mmHg 47%
    23:00 +9°C° 0 mm 1 mps 638 mmHg 48%

    Day after tomorrow, 25 January, Friday

    Time Temperature Precipitation Wind Pressure Humidity
    00:00 +8°C° 0 mm 1 mps 637 mmHg 49%
    01:00 +8°C° 0 mm 1 mps 637 mmHg 49%
    02:00 +8°C° 0 mm 1 mps 637 mmHg 49%
    03:00 +7°C° 0 mm 1 mps 637 mmHg 49%
    04:00 +7°C° 0 mm 1 mps 636 mmHg 49%
    05:00 +7°C° 0 mm 1 mps 636 mmHg 48%
    06:00 +5°C° 0 mm 0 mps 637 mmHg 47%
    07:00 +5°C° 0 mm 0 mps 637 mmHg 46%
    08:00 +7°C° 0 mm 0 mps 637 mmHg 41%
    09:00 +9°C° 0 mm 0 mps 638 mmHg 35%
    10:00 +10°C° 0 mm 0 mps 639 mmHg 30%
    11:00 +13°C° 0 mm 1 mps 639 mmHg 30%
    12:00 +14°C° 0 mm 1 mps 639 mmHg 30%
    13:00 +15°C° 0 mm 2 mps 639 mmHg 31%
    14:00 +16°C° 0 mm 2 mps 639 mmHg 31%
    15:00 +16°C° 0 mm 3 mps 639 mmHg 32%
    16:00 +16°C° 0 mm 3 mps 638 mmHg 33%
    17:00 +14°C° 0 mm 3 mps 638 mmHg 38%
    18:00 +14°C° 0 mm 2 mps 638 mmHg 42%
    19:00 +12°C° 0 mm 2 mps 638 mmHg 47%
    20:00 +12°C° 0 mm 1 mps 638 mmHg 49%
    21:00 +11°C° 0 mm 1 mps 638 mmHg 51%
    22:00 +11°C° 0 mm 1 mps 638 mmHg 53%
    23:00 +10°C° 0 mm 1 mps 638 mmHg 54%

    26 January, Saturday

    Time Temperature Precipitation Wind Pressure Humidity
    00:00 +10°C° 0 mm 1 mps 638 mmHg 55%
    01:00 +9°C° 0 mm 1 mps 637 mmHg 56%
    02:00 +9°C° 0 mm 1 mps 637 mmHg 56%
    03:00 +9°C° 0 mm 1 mps 637 mmHg 56%
    04:00 +8°C° 0 mm 1 mps 637 mmHg 56%
    05:00 +8°C° 0 mm 1 mps 637 mmHg 56%
    06:00 +8°C° 0 mm 1 mps 637 mmHg 57%
    07:00 +7°C° 0 mm 0 mps 637 mmHg 57%
    08:00 +8°C° 0 mm 0 mps 638 mmHg 51%
    09:00 +10°C° 0 mm 0 mps 639 mmHg 45%
    10:00 +12°C° 0 mm 0 mps 640 mmHg 39%
    11:00 +14°C° 0 mm 1 mps 640 mmHg 37%
    12:00 +15°C° 0 mm 1 mps 640 mmHg 35%
    13:00 +16°C° 0 mm 1 mps 640 mmHg 34%
    14:00 +17°C° 0 mm 2 mps 640 mmHg 33%
    15:00 +17°C° 0 mm 2 mps 640 mmHg 32%
    16:00 +18°C° 0 mm 2 mps 639 mmHg 31%
    17:00 +16°C° 0 mm 2 mps 639 mmHg 36%
    18:00 +15°C° 0 mm 2 mps 639 mmHg 42%
    19:00 +14°C° 0 mm 1 mps 639 mmHg 47%
    20:00 +13°C° 0 mm 1 mps 639 mmHg 49%
    21:00 +12°C° 0 mm 1 mps 639 mmHg 52%
    22:00 +12°C° 0 mm 1 mps 639 mmHg 54%
    23:00 +11°C° 0 mm 1 mps 639 mmHg 54%

    27 January, Sunday

    Time Temperature Precipitation Wind Pressure Humidity
    00:00 +11°C° 0 mm 1 mps 639 mmHg 55%
    01:00 +11°C° 0 mm 1 mps 639 mmHg 56%
    02:00 +9°C° 0 mm 0 mps 639 mmHg 56%
    03:00 +9°C° 0 mm 0 mps 638 mmHg 57%
    04:00 +9°C° 0 mm 0 mps 638 mmHg 57%
    05:00 +9°C° 0 mm 0 mps 638 mmHg 57%
    06:00 +8°C° 0 mm 0 mps 639 mmHg 56%
    07:00 +9°C° 0 mm 1 mps 639 mmHg 56%
    08:00 +11°C° 0 mm 1 mps 640 mmHg 50%
    09:00 +12°C° 0 mm 0 mps 641 mmHg 45%
    10:00 +13°C° 0 mm 0 mps 642 mmHg 39%
    11:00 +16°C° 0 mm 1 mps 642 mmHg 37%
    12:00 +17°C° 0 mm 2 mps 642 mmHg 35%
    13:00 +18°C° 0 mm 2 mps 642 mmHg 34%
    14:00 +18°C° 0 mm 2 mps 642 mmHg 34%
    15:00 +18°C° 0 mm 2 mps 641 mmHg 35%
    16:00 +18°C° 0 mm 2 mps 641 mmHg 35%
    17:00 +17°C° 0 mm 2 mps 641 mmHg 40%
    18:00 +16°C° 0 mm 2 mps 640 mmHg 45%
    19:00 +15°C° 0 mm 1 mps 640 mmHg 50%
    20:00 +14°C° 0 mm 1 mps 640 mmHg 52%
    21:00 +14°C° 0 mm 1 mps 640 mmHg 54%
    22:00 +13°C° 0 mm 1 mps 640 mmHg 55%
    23:00 +13°C° 0 mm 1 mps 640 mmHg 56%

    28 January, Monday

    Time Temperature Precipitation Wind Pressure Humidity
    00:00 +12°C° 0 mm 1 mps 640 mmHg 56%
    01:00 +12°C° 0 mm 1 mps 640 mmHg 57%
    02:00 +11°C° 0 mm 1 mps 640 mmHg 57%
    03:00 +11°C° 0 mm 1 mps 640 mmHg 57%
    04:00 +11°C° 0 mm 1 mps 639 mmHg 58%
    05:00 +11°C° 0 mm 1 mps 640 mmHg 58%
    06:00 +11°C° 0 mm 1 mps 640 mmHg 58%
    07:00 +11°C° 0 mm 1 mps 640 mmHg 58%
    08:00 +12°C° 0 mm 1 mps 640 mmHg 54%
    09:00 +13°C° 0 mm 1 mps 641 mmHg 50%
    10:00 +14°C° 0 mm 1 mps 642 mmHg 46%
    11:00 +15°C° 0 mm 2 mps 642 mmHg 45%
    12:00 +16°C° 0 mm 3 mps 641 mmHg 44%
    13:00 +17°C° 0 mm 3 mps 641 mmHg 43%
    14:00 +17°C° 0 mm 4 mps 641 mmHg 42%
    15:00 +18°C° 0 mm 4 mps 641 mmHg 41%
    16:00 +17°C° 0 mm 5 mps 641 mmHg 41%
    17:00 +17°C° 0 mm 4 mps 640 mmHg 45%
    18:00 +14°C° 0 mm 4 mps 640 mmHg 50%
    19:00 +13°C° 0 mm 3 mps 640 mmHg 55%
    20:00 +13°C° 0 mm 3 mps 640 mmHg 57%
    21:00 +13°C° 0 mm 2 mps 640 mmHg 60%
    22:00 +13°C° 0 mm 2 mps 640 mmHg 62%
    23:00 +12°C° 0 mm 2 mps 640 mmHg 63%
    Show more